Regional Weather Roundup
Issued by NWS

Home | Current Version | Previous Version | Text Only | Print | Product List | Glossary On
Versions: 1 2 3 4 5 6 7 8 9 10 11 12 13 14 15 16 17 18 19 20 21 22 23 24 25 26 27 28 29 30 31 32 33 34 35 36 37 38 39 40 41 42 43 44 45 46 47 48 49 50
000
ASUS43 KLOT 180508
RWRIL

ILLINOIS REGIONAL WEATHER ROUNDUP
NATIONAL WEATHER SERVICE CHICAGO/ROMEOVILLE IL
1200 AM CDT FRI AUG 18 2017

NOTE: "FAIR" INDICATES FEW OR NO CLOUDS BELOW 12,000 FEET WITH NO
SIGNIFICANT WEATHER AND/OR OBSTRUCTIONS TO VISIBILITY.

* THESE STATIONS ARE NOT UNDER NWS QUALITY CONTROL. THEY ALSO MAY NOT
  REPORT WEATHER SUCH AS PRECIPITATION OR FOG.

ILZ001-002-007-009-015-016-024-180600-
NORTHWEST ILLINOIS

CITY           SKY/WX    TMP DP  RH WIND       PRES   REMARKS
MOLINE         CLEAR     70  63  78 W10G18    29.85S
STERLING*      CLEAR     68  65  90 W10       29.83S
SAVANNA*       CLEAR     69  64  82 W8        29.82S
$$

ILZ003-004-008-010-011-017-018-180600-
NORTH CENTRAL ILLINOIS

CITY           SKY/WX    TMP DP  RH WIND       PRES   REMARKS
ROCKFORD       MOCLDY    70  64  81 W12       29.80S
FREEPORT*      CLEAR     66  63  88 W9        29.82S
ROCHELLE*      CLEAR     68  64  86 W13       29.81F
DE KALB*       CLEAR     69  65  84 W13G18    29.81S
PERU*          CLEAR     68  63  84 W8        29.83S
$$

ILZ005-006-012>014-019>023-180600-
NORTHEAST ILLINOIS

CITY           SKY/WX    TMP DP  RH WIND       PRES   REMARKS
CHICAGO-OHARE  PTCLDY    73  63  70 W9        29.77S
CHICAGO-MIDWAY PTCLDY    74  64  71 W12       29.77F
AURORA         MOCLDY    70  66  87 SW10      29.80F
LANSING*       CLOUDY    74  62  64 W10       29.80S
JOLIET*        CLEAR     73  66  80 SW8       29.81S
WAUKEGAN       MOCLDY    70  63  78 VRB7      29.74S
DUPAGE AIRPORT MOCLDY    71  66  84 SW10      29.78F
KANKAKEE*      MOCLDY    68  64  88 W7        29.83S
WHEELING       CLEAR     71  65  81 SW8       29.77F
MORRIS*        CLEAR     69  65  86 W7        29.80F
ROMEOVILLE*    CLEAR     70  63  78 W9        29.80F
NORTHERLY ISL    N/A     74  62  66 W9          N/A
$$

LMZ740>746-180600-
SOUTHERN LAKE MICHIGAN

STATION/POSITION SKY/WX   TEMP    WIND        PRES    VSBY  WAVE
                          AIR SEA DIR/SP/G                  HT/PER
                          (F)     (DEG/KT/KT) (MB)    (MI)  (FT/S)
SOUTHERN BUOY              72 71  290/ 19/ 25 1005.8          5/ 4
WILMETTE HARBOR            73 72  250/ 12/ 14   N/A           2/ 3
HARRISON CRIB              75     260/ 18/ 19   N/A
CALUMET HARBOR             74     240/  5/ 11 1007.9F
BURNS HARBOR               76     260/ 15/ 20 1009.1R
MICHIGAN CITY              74     250/ 20/ 22   N/A
MICHIGAN CITY 6N           75 74  280/ 16/ 19   N/A           4/ 4
ST. JOSEPH                 74 74  300/ 19/ 27 1007.9          6/ 5
$$

ILZ025>027-034>036-040-047-049-050-058-095>099-180600-
WEST-CENTRAL ILLINOIS

CITY           SKY/WX    TMP DP  RH WIND       PRES   REMARKS
QUINCY         CLEAR     67  61  81 SW3       29.90S
GALESBURG*     CLEAR     67  63  85 W5        29.87F
MACOMB*        MOCLDY    65  63  93 W5        29.90S
JACKSONVILLE*  PTCLDY    65  62  90 CALM      29.88S
PITTSFIELD*    CLEAR     70  62  77 W3        29.91S
$$

ILZ028>032-037-038-041>044-048-051>054-059>061-180600-
CENTRAL ILLINOIS

CITY           SKY/WX    TMP DP  RH WIND       PRES   REMARKS
PONTIAC        CLOUDY    71  67  88 W8        29.85S
BLOOMINGTON    MOCLDY    70  63  78 W7        29.87F
DECATUR        CLEAR     72  66  81 W7        29.88S
PEORIA         CLEAR     70  63  78 W5        29.86S
LACON*         CLEAR     70  64  83 W6        29.84R
LINCOLN*       CLEAR     69  67  94 CALM      29.87S
SPRINGFIELD    PTCLDY    69  66  90 SW5       29.88S
TAYLORVILLE    CLEAR     69  66  90 W6        29.88S
$$

ILZ033-039-045-046-055>057-062-063-180600-
EAST-CENTRAL ILLINOIS

CITY           SKY/WX    TMP DP  RH WIND       PRES   REMARKS
CHAMPAIGN      CLEAR     67  65  93 SW5       29.87S
RANTOUL*       PTCLDY    72  68  88 W6        29.86S
MATTOON        CLEAR     72  67  84 SW7       29.87S
PARIS*         CLEAR     69  66  91 W9        29.87S
$$

ILZ079-100>102-180600-
SOUTHWEST ILLINOIS

CITY           SKY/WX    TMP DP  RH WIND       PRES   REMARKS
ALTON          CLEAR     68  66  92 W6        29.91S
BELLEVILLE     CLEAR     71  65  81 SW6       29.92S
CAHOKIA*       CLEAR     73  64  73 SW5       29.90F
SPARTA*        PTCLDY    70  66  86 CALM      29.93S
$$

ILZ064>066-069>071-074>076-080>082-084>086-088>090-092>094-180600-
SOUTH-CENTRAL ILLINOIS

CITY           SKY/WX    TMP DP  RH WIND       PRES   REMARKS
CARBONDALE     CLEAR     71  71 100 W5        29.91F
CAIRO*         CLEAR     73  73  98 W5        29.92S
EFFINGHAM*     CLEAR     72  67  85 SW7       29.90F
MARION         CLEAR     73  73 100 CALM      29.92S
MT. VERNON     CLEAR     71  67  87 W3        29.90F
CENTRALIA*     PTCLDY    69  68  97 W6        29.90S
SALEM*         CLEAR     68  65  92 W3        29.90S
METROPOLIS*    PTCLDY    76  73  91 W6        29.92S
$$

ILZ067-068-072-073-078-083-087-091-180600-
SOUTHEAST ILLINOIS

CITY           SKY/WX    TMP DP  RH WIND       PRES   REMARKS
LAWRENCEVILLE  PTCLDY    75  70  84 W3        29.87F
FLORA*         CLEAR     73  68  84 W3        29.89F
FAIRFIELD*     CLEAR     71  71 100 CALM      29.88F
HARRISBURG*    PTCLDY    74  73  96 CALM      29.91S
ROBINSON*      PTCLDY    71  68  92 W6        29.88S
CARMI*         CLEAR     74  72  93 W6        29.89S
$$

ABBREVIATIONS USED IN REMARKS
   TC - TEMPERATURE IN CELSIUS
  WCI - WIND CHILL INDEX
   HX - HEAT INDEX
  VSB - VISIBILITY
$$





USA.gov is the U.S. government's official web portal to all federal, state and local government web resources and services.